STARLINK-1784 (46687 NORAD) Tracking and Keplerian Element Data

This shows tracking and keplerian element data for the satellite.

Feedback or suggestion? Click here.




ElementValue
Catalog46687
NameSTARLINK-1784
Epoch Orbit1481
Epoch Day17.91667824
Epoch Year2021
RAAN21.1454
Inclination53.0549
Eccentricity0.0005485
Argument of Perigee326.4448
Mean Anonmoly87.7482
Mean Motion15.59180012
Decay Rate-0.01121424
L11 46687U 20073T 21017.91667824 -.01121424 00000-0 -15500-1 0 9996
L22 46687 53.0549 21.1454 0005485 326.4448 87.7482 15.59180012 14811

Live tracking and technical data element details for STARLINK-1784 (NORAD 46687). STARLINK-1784 can be tracked NOW for your location showing map with azimuth and elevation plus other details from your city location.

Track the satellite on the map from your city or location and see movement details for azimuth, elevation, latitude, longitude, range, height, and movement on the map or in text.







IsCatalogInMostPopularTable: catalog: 46687, numindb: 32
Update: records affected: 1



GetName: 46687 STARLINK-1784

Hit Count: updated at: Tue, 19 Jan 2021 01:36:46 GMT